Weather History for KBDE - April, 2013

Change the Weather History Date:

Tuesday, April 16, 2013

  Actual Average Record
Temperature  
Mean Temperature 32 °F -  
Max Temperature 36 °F 53 °F 78 °F (2002)
Min Temperature 28 °F 30 °F 14 °F (1935)
Degree Days  
Heating Degree Days 34    
Moisture  
Dew Point 26 °F    
Average Humidity 83    
Maximum Humidity 93    
Minimum Humidity 65    
Precipitation  
Precipitation 0.00 in - - ()
Sea Level Pressure  
Sea Level Pressure 30.13 in    
Wind  
Wind Speed 8 mph (NNW)    
Max Wind Speed 12 mph    
Max Gust Speed -    
Visibility 10 miles    
Events Snow    
Averages and records for this station are not official NWS values.
T = Trace of Precipitation, MM = Missing Value Source: NWS Daily Summary

Daily Weather History Graph

Daily Weather History Graph

Search for Another Location

Airport or City:

Trip Planner

Search our weather history database for the weather conditions in past years. The results will help you decide how hot, cold, wet, or windy it might be!

Date:

Astronomy

Apr. 16, 2013 Rise Set
Actual Time 6:25 AM CDT 8:11 PM CDT
Civil Twilight 5:51 AM CDT 8:45 PM CDT
Nautical Twilight 5:11 AM CDT 9:26 PM CDT
Astronomical Twilight 4:26 AM CDT 10:11 PM CDT
Moon 10:31 AM CDT (4/16) 1:22 AM CDT (4/16)
Length of Visible Light 14h 53m
Length of Day
13h 46m
Waxing Crescent, 33% of the Moon is Illuminated
Apr 16
Waxing Crescent
Apr 18
First Quarter
Apr 25
Full
May 2
Last Quarter
May 9
New

Hourly Weather History & Observations

Time (CDT) Temp. Windchill Dew Point Humidity Pressure Visibility Wind Dir Wind Speed Gust Speed Precip Events Conditions
12:53 AM 30.0 °F 22.4 °F 27.0 °F 88% 29.94 in 10.0 mi NNW 8.1 mph - N/A   Overcast
1:12 AM 30.2 °F 21.9 °F 26.6 °F 86% 29.90 in 10.0 mi NNW 9.2 mph - N/A   Overcast
1:19 AM 30.2 °F 21.3 °F 26.6 °F 86% 29.90 in 10.0 mi NNW 10.4 mph - N/A   Overcast
1:34 AM 28.4 °F 18.5 °F 26.6 °F 93% 29.91 in 10.0 mi NNW 11.5 mph - N/A   Overcast
1:53 AM 28.9 °F 20.4 °F 26.1 °F 89% 29.96 in 10.0 mi NNW 9.2 mph - N/A   Overcast
2:20 AM 28.4 °F 19.7 °F 26.6 °F 93% 29.91 in 10.0 mi NNW 9.2 mph - N/A   Overcast
2:53 AM 28.9 °F 19.8 °F 25.0 °F 85% 29.98 in 10.0 mi NNW 10.4 mph - N/A   Overcast
3:45 AM 28.4 °F 19.7 °F 26.6 °F 93% 29.94 in 10.0 mi NNW 9.2 mph - N/A   Overcast
3:53 AM 28.9 °F 19.8 °F 26.1 °F 89% 29.99 in 10.0 mi NNW 10.4 mph - N/A   Overcast
4:08 AM 28.4 °F 19.7 °F 26.6 °F 93% 29.95 in 10.0 mi NNW 9.2 mph - N/A   Overcast
4:34 AM 28.4 °F 19.7 °F 26.6 °F 93% 29.96 in 10.0 mi NNW 9.2 mph - N/A   Overcast
4:53 AM 28.9 °F 20.4 °F 26.1 °F 89% 30.02 in 10.0 mi NNW 9.2 mph - N/A   Overcast
5:13 AM 28.4 °F 22.2 °F 26.6 °F 93% 29.99 in 10.0 mi NNW 5.8 mph - N/A   Overcast
5:53 AM 28.9 °F 21.1 °F 26.1 °F 89% 30.06 in 10.0 mi NNW 8.1 mph - N/A   Overcast
6:03 AM 28.4 °F 21.2 °F 26.6 °F 93% 30.01 in 10.0 mi North 6.9 mph - N/A   Overcast
6:10 AM 28.4 °F 21.2 °F 26.6 °F 93% 30.02 in 10.0 mi North 6.9 mph - N/A   Overcast
6:23 AM 28.4 °F 22.2 °F 26.6 °F 93% 30.03 in 10.0 mi NNW 5.8 mph - N/A   Overcast
6:53 AM 28.4 °F 21.2 °F 26.6 °F 93% 30.04 in 10.0 mi North 6.9 mph - N/A   Overcast
7:40 AM 28.4 °F 22.2 °F 26.6 °F 93% 30.07 in 10.0 mi NNW 5.8 mph - N/A   Overcast
7:53 AM 28.9 °F 21.1 °F 26.1 °F 89% 30.13 in 10.0 mi North 8.1 mph - N/A   Overcast
8:03 AM 28.4 °F 21.2 °F 26.6 °F 93% 30.09 in 10.0 mi NNW 6.9 mph - N/A   Overcast
8:31 AM 28.4 °F 19.1 °F 24.8 °F 86% 30.09 in 7.0 mi North 10.4 mph - N/A   Overcast
8:53 AM 30.0 °F 21.7 °F 26.1 °F 85% 30.15 in 8.0 mi North 9.2 mph - 0.00 in Snow Light Snow
9:36 AM 30.2 °F 23.4 °F 24.8 °F 80% 30.12 in 9.0 mi NNW 6.9 mph - 0.00 in   Overcast
9:53 AM 30.0 °F 22.4 °F 25.0 °F 82% 30.18 in 10.0 mi NNW 8.1 mph - 0.00 in   Overcast
10:53 AM 30.9 °F 22.2 °F 25.0 °F 79% 30.22 in 10.0 mi NNW 10.4 mph - N/A   Overcast
11:53 AM 32.0 °F 25.6 °F 25.0 °F 75% 30.25 in 10.0 mi NNW 6.9 mph - N/A   Overcast
12:53 PM 33.1 °F 25.5 °F 25.0 °F 72% 30.27 in 10.0 mi NNW 9.2 mph - N/A   Overcast
1:53 PM 34.0 °F 26.6 °F 25.0 °F 70% 30.28 in 10.0 mi NNW 9.2 mph - N/A   Overcast
2:53 PM 35.1 °F 29.3 °F 25.0 °F 67% 30.30 in 10.0 mi North 6.9 mph - N/A   Overcast
3:53 PM 34.0 °F 31.0 °F 25.0 °F 70% 30.32 in 10.0 mi NW 3.5 mph - N/A   Overcast
4:16 PM 35.6 °F 29.9 °F 24.8 °F 65% 30.27 in 10.0 mi NW 6.9 mph - N/A   Overcast
4:53 PM 34.0 °F 28.8 °F 25.0 °F 70% 30.32 in 10.0 mi NW 5.8 mph - N/A   Overcast
5:53 PM 35.1 °F 29.3 °F 26.1 °F 70% 30.33 in 10.0 mi NNW 6.9 mph - N/A   Overcast
6:53 PM 35.1 °F 32.2 °F 26.1 °F 70% 30.36 in 10.0 mi NNW 3.5 mph - N/A   Overcast
7:53 PM 35.1 °F 32.2 °F 26.1 °F 70% 30.37 in 10.0 mi North 3.5 mph - N/A   Overcast
8:53 PM 34.0 °F - 27.0 °F 75% 30.39 in 10.0 mi Calm Calm - N/A   Overcast
9:53 PM 34.0 °F 31.0 °F 27.0 °F 75% 30.42 in 10.0 mi NNE 3.5 mph - N/A   Overcast
10:53 PM 34.0 °F 31.0 °F 26.1 °F 73% 30.42 in 10.0 mi ENE 3.5 mph - N/A   Overcast
11:53 PM 34.0 °F 29.8 °F 26.1 °F 73% 30.41 in 10.0 mi ENE 4.6 mph - N/A   Overcast